User: anonymous   Login
Location: Bittelbronn
(48.4454°N, 8.5870°E)
Time: 16:03:06
(UTC+00:00)
Language:

Geosat - Orbit

View from above orbital plane
View from above orbital plane
View from above satellite
View from above satellite

Ground track
Ground track

The orbit data is extracted from the following two-line orbital elements,

1 15595U 85021A   24207.21408583  .00000452  00000-0  18972-3 0  9998
2 15595 108.0580  81.5300 0001758 253.4206 106.6743 14.39069048 63481
Epoch (UTC): 25 July 2024 05:08:17
Eccentricity: 0.0001758
inclination: 108.0580°
perigee height: 760 km
apogee height: 763 km
right ascension of ascending node: 81.5300°
argument of perigee: 253.4206°
revolutions per day: 14.39069048
mean anomaly at epoch: 106.6743°
orbit number at epoch: 6348

The dashed part of the orbit path shows where the satellite is in the earth's shadow,  

DLR